#timestamp,LO_Frequency,Hit 
1502056815.2,286047040.6,N
1502056835.0,286047040.4,N
1502056835.9,286047040.4,N
1502056855.8,286047038.5,N
1502056875.6,286047040.6,N
1502056895.4,286047040.5,N
1502056915.3,286047039.8,N
1502056935.1,286047043.4,Y
1502056955.8,286047022.8,N
1502056975.7,286047021.1,N
1502056995.5,286047020.2,N
1502057015.3,286047019.1,N
1502057035.2,286047019.2,N
1502057055.9,286047020.1,N
1502057075.7,286047018.1,N
1502057095.6,286047018.0,N
1502057115.4,286047019.7,N
1502057135.2,286047019.0,N
1502057155.0,286047020.1,N
1502057155.9,286047020.1,N
1502057175.8,286047019.0,N
1502057195.6,286047020.2,N
1502057215.4,286047020.4,N
1502057235.3,286047021.1,N
1502057255.1,286047023.3,N
1502057275.8,286047025.1,N
1502057295.7,286047022.4,N
1502057315.5,286047021.1,N
1502057335.3,286047020.6,N
1502057355.2,286047020.8,N
1502057375.9,286047020.5,N
1502057395.7,286047021.3,N
1502057415.5,286047021.6,N
1502057435.4,286047020.5,N
1502057455.2,286047025.2,N
1502057475.0,286047020.5,N
1502057475.9,286047020.5,N
1502057495.8,286047021.3,N
1502057515.6,286047022.3,N
1502057535.4,286047023.3,N
1502057555.3,286047022.7,N
1502057575.1,286047024.9,N
1502057576.0,286047024.9,N
1502057595.8,286047022.5,N
1502057615.7,286047023.4,N
1502057635.5,286047022.8,N
1502057655.3,286047022.3,N
1502057675.2,286047024.8,N
1502057695.9,286047023.2,N
1502057715.7,286047021.0,N
1502057735.5,286047021.2,N
1502057755.4,286047023.0,N
1502057775.2,286047022.4,N
1502057795.0,286047023.3,N
1502057795.9,286047023.3,N
1502057815.8,286047024.8,N
1502057835.6,286047024.4,N
1502057855.4,286047022.8,N
1502057875.3,286047023.4,N
1502057895.1,286047022.6,N
1502057915.8,286047024.0,N
1502057935.7,286047026.4,N
1502057955.5,286047024.1,N
1502057975.3,286047025.7,N
1502057995.2,286047025.6,N
1502058015.9,286047024.0,N
1502058035.7,286047026.7,N
1502058055.5,286047026.6,N
1502058075.4,286047028.3,N
1502058095.2,286047027.9,N
1502058115.0,286047028.0,N
1502058115.9,286047028.0,N
1502058135.8,286047025.4,N
1502058155.6,286047027.4,N
1502058175.4,286047029.5,N
1502058195.3,286047027.6,N
1502058215.1,286047025.7,N
1502058216.0,286047025.7,N
1502058235.8,286047026.0,N
1502058255.7,286047028.3,N
1502058275.5,286047026.2,N
1502058295.3,286047029.5,N
1502058315.1,286047031.6,N
1502058335.9,286047027.7,N
1502058355.7,286047024.1,N
1502058375.5,286047025.3,N
1502058395.4,286047031.6,N
1502058415.2,286047029.5,N
1502058435.0,286047029.8,N
1502058435.9,286047029.8,N
1502058455.8,286047026.9,N
1502058475.6,286047027.8,N
1502058495.4,286047031.3,N
1502058515.3,286047031.5,N
1502058535.1,286047030.2,N
1502058536.0,286047030.2,N
1502058555.8,286047032.2,N
1502058575.7,286047031.9,N
1502058595.5,286047032.4,N
1502058615.3,286047033.1,N
1502058635.2,286047034.4,N
1502058655.9,286047036.3,N
1502058675.7,286047034.0,N
1502058695.5,286047033.9,N
1502058715.4,286047036.1,N
1502058735.2,286047036.0,N
1502058755.0,286047036.4,Y
1502058756.0,286047036.4,Y
1502058775.8,286046990.8,N
1502058795.6,286046992.0,N
1502058815.5,286046988.9,N
1502058835.3,286046993.0,N
1502058855.1,286046990.7,N
1502058875.8,286046989.0,N
1502058895.7,286046991.4,N
1502058915.5,286046989.0,N
1502058935.3,286046987.0,N
1502058955.2,286046987.0,N
1502058975.9,286046985.9,N
1502058995.7,286046985.6,N
1502059015.6,286046988.1,N
1502059035.4,286046985.3,N
1502059055.2,286046989.2,N
1502059075.0,286046990.5,N
1502059076.0,286046990.5,N
1502059095.8,286046992.8,N
1502059115.6,286046994.3,N
1502059135.4,286046991.8,N
1502059155.3,286046993.9,N
1502059175.1,286046996.2,N
1502059195.8,286046992.5,N
1502059215.7,286046991.0,N
1502059235.5,286046992.7,N
1502059255.3,286046990.4,N
1502059275.2,286046988.8,N
1502059295.9,286046987.4,N
1502059315.7,286046987.6,N
1502059335.6,286046989.2,N
1502059355.4,286046990.8,N
1502059375.2,286046990.6,N
1502059395.0,286046991.5,N
1502059395.9,286046991.5,N
1502059415.8,286046989.0,N
1502059435.6,286046991.6,N
1502059455.4,286046989.0,N
1502059475.3,286046990.3,N
1502059495.1,286046990.5,N
1502059515.8,286046992.6,N
1502059535.7,286046994.0,N
1502059555.5,286046993.5,N
1502059575.3,286046993.7,N
1502059595.2,286046996.2,N
1502059615.9,286046995.3,N
1502059635.7,286046995.5,N
1502059655.6,286046996.2,N
1502059675.4,286046992.2,N
1502059695.2,286046994.1,N
1502059715.0,286046995.9,N
1502059715.9,286046995.9,N
1502059735.8,286046995.9,N
1502059755.6,286046995.1,N
1502059775.4,286046998.0,N
1502059795.3,286046999.1,N
1502059815.1,286046997.6,N
1502059835.8,286046996.6,N
1502059855.7,286046997.5,N
1502059875.5,286046995.1,N
1502059895.3,286046997.1,N
1502059915.2,286046997.9,N
1502059935.9,286046995.2,N
1502059955.7,286046997.7,N
1502059975.5,286046994.9,N
1502059995.4,286046999.2,N
1502060015.2,286046996.9,N
1502060035.0,286046999.4,N
1502060035.9,286046999.4,N
1502060055.8,286046996.5,N
1502060075.6,286046996.8,N
1502060095.4,286046997.0,N
1502060115.3,286046997.0,N
1502060135.1,286046998.3,N
1502060136.0,286046998.3,N
1502060155.8,286046998.4,N
1502060175.7,286046998.6,N
1502060195.5,286046997.5,N
1502060215.3,286046995.4,N
1502060235.2,286046997.2,N
1502060255.9,286046997.3,N
1502060275.7,286047000.8,N
1502060295.5,286046999.8,N
1502060315.4,286047000.6,N
1502060335.2,286046998.1,N
1502060355.0,286046997.1,N
1502060355.9,286046997.1,N
1502060375.8,286046999.2,N
1502060395.6,286046999.3,N
